     2.10           OBSERVATION DATA    G (GPS)             RINEX VERSION / TYPE
teqc 2006Apr13 CORS-ADM Account 20060628 14:04:01UTC        PGM / RUN BY / DATE
Solaris 5.9|UltraSparc IIi|cc -xarch=v9 SC5.5|=+-|*Sparc    COMMENT
teqc 2006Apr13 CORS/NGS/NOAA 20060628 14:04:00UTC           COMMENT
BIT 2 OF LLI FLAGS DATA COLLECTED UNDER A/S CONDITION       COMMENT
cnmr                                                        MARKER NAME
50512M001                                                   MARKER NUMBER
Peter Paul Camacho Commonwealth of the Northern Mariana Isl OBSERVER / AGENCY
0220233361 TRIMBLE 4700 7.29                                REC # / TYPE / VERS
0220238086 TRM33429.20+GP UNAV                              ANT # / TYPE
 -5087756.9960  3465027.2461  1664652.3620                  APPROX POSITION XYZ
        0.0000        0.0000        0.0000                  ANTENNA: DELTA H/E/N
     1     1                                                WAVELENGTH FACT L1/2
     7    C1    L1    L2    P1    P2    D1    D2            # / TYPES OF OBSERV
    30.0000                                                 INTERVAL
SNR is mapped to RINEX snr flag value [0-9]                 COMMENT
L1 & L2: min(max(int(snr_dBHz/6), 0), 9)                    COMMENT
Forced Modulo Decimation to 30 seconds                      COMMENT
  2006     6    28    13     0    0.0000000     GPS         TIME OF FIRST OBS
                                                            END OF HEADER
 06  6 28 13  0  0.0000000  0  9G 7G15G 1G16G22G19G23G11G13
  23488243.0404  -10633045.34647  -8197438.42645                  23488241.0384
     -1766.6024
  22695106.2374  -15533732.30748 -12097449.84145                  22695102.8304
     -1892.4364
  24593042.2714   -7628086.96447  -5930241.76743                  24593038.8124
     -2125.0344
  21899395.3114  -16168134.63448 -15374381.28846                  21899389.9794
       681.4704
  24613604.6634   -1085663.03546   -843098.42243                  24613598.3644
      1243.9404
  21781562.3144  -14100488.85648 -11970843.22647                  21781556.1954
       529.5124
  23631608.3914   -7811808.78447  -6070159.64645                  23631601.3084
      -766.1574
  24217374.0494   -2554876.98746  -1978342.14243                  24217369.1334
      3788.4234
  24785934.3054    -300264.54246   -231042.84043                  24785929.8364
       382.4024
 06  6 28 13  0 30.0000000  0  9G 7G15G 1G16G22G19G23G11G13
  23498317.8904  -10580102.60447  -8156184.39045                  23498315.2694
     -1763.2034
  22705947.8514  -15476759.42048 -12053055.37346                  22705944.7714
     -1905.9724
  24605151.3214   -7564446.63546  -5880651.88543                  24605149.2804
     -2117.9104
  21895512.9094  -16188536.49248 -15390278.85046                  21895507.9154
       678.3694
  24606511.4624   -1122941.99346   -872146.94643                  24606504.3194
      1241.0644
  21778564.9744  -14116238.51548 -11983115.66646                  21778559.5164
       520.2154
  23636006.0104   -7788698.45947  -6052151.58645                  23635999.3484
      -774.7124
  24195756.4614   -2668482.71546  -2066866.06943                  24195750.8484
      3784.8054
  24783788.3004    -311539.99046   -239828.86543                  24783784.6024
       369.1504
 06  6 28 13  1  0.0000000  0  9G 7G15G 1G16G22G19G23G11G13
  23508373.8224  -10527260.40747  -8115008.65745                  23508370.6064
     -1759.7024
  22716867.0734  -15419378.78148 -12008343.19345                  22716863.4424
     -1919.5174
  24617222.3594   -7501016.28546  -5831225.60643                  24617219.5704
     -2110.9284
  21891648.6584  -16208841.56448 -15406100.96746                  21891643.1814
       675.1714
  24599435.6394   -1160125.47946   -901121.03544                  24599429.0414
      1237.9304
  21775622.0674  -14131705.38448 -11995167.76547                  21775615.6374
       510.8354
  23640452.7134   -7765328.16147  -6033940.93745                  23640446.1734
      -783.3254
  24174158.6664   -2781976.33346  -2155302.59743                  24174154.2164
      3781.1624
  24781718.0114    -322417.60446   -248304.95843                  24781714.3434
       355.9524
 06  6 28 13  1 30.0000000  0  9G 7G15G 1G16G22G19G23G11G13
  23518410.0104  -10474519.31747  -8073911.74645                  23518406.9394
     -1756.3334
  22727863.2844  -15361592.02547 -11963314.58145                  22727860.9184
     -1932.9204
  24629252.1674   -7437797.20546  -5781963.97944                  24629249.5004
     -2103.7064
  21887803.6824  -16229047.61348 -15421845.94346                  21887798.6794
       671.8804
  24592378.7794   -1197210.79047   -930018.70044                  24592371.5634
      1234.5314
  21772732.0324  -14146890.63748 -12007000.41847                  21772726.7634
       501.5434
  23644949.1594   -7741699.99747  -6015529.37945                  23644943.1434
      -791.8124
  24152582.9394   -2895354.98946  -2243649.54643                  24152578.9614
      3777.2904
  24779723.8784    -332898.25246   -256471.62043                  24779719.5324
       342.8274
 06  6 28 13  2  0.0000000  0  9G 7G15G 1G16G22G19G23G11G13
  23528426.5134  -10421883.78247  -8032897.08745                  23528423.1404
     -1752.6324
  22738935.8664  -15303404.69247 -11917973.84745                  22738934.1114
     -1946.1774
  24641241.8704   -7374794.88646  -5732871.30543                  24641238.6214
     -2096.4404
  21883976.9064  -16249156.70748 -15437515.35546                  21883972.2304
       668.7014
  24585340.3494   -1234198.63646   -958840.37444                  24585333.4434
      1231.3134
  21769895.0994  -14161799.44748 -12018617.67446                  21769889.0594
       492.4374
  23649493.0764   -7717820.40747  -5996921.90945                  23649486.5534
      -800.1174
  24131029.9704   -3008620.16046  -2331908.08143                  24131024.9974
      3773.6674
  24777804.3454    -342986.73746   -264332.77543                  24777800.6414
       329.7904
 06  6 28 13  2 30.0000000  0  8G 7G15G16G22G19G23G11G13
  23538420.6184  -10369362.43747  -7991971.38745                  23538417.6814
     -1748.7404
  22750083.1674  -15244826.66747 -11872328.61145                  22750078.3564
     -1958.9554
  21880167.4964  -16269175.21748 -15453114.18246                  21880162.3924
       665.9034
  24578319.0214   -1271094.93146   -987590.72044                  24578312.3644
      1228.5994
  21767109.1194  -14176441.37848 -12030026.95747                  21767103.3694
       483.8334
  23654082.8094   -7693700.00247  -5978126.78645                  23654077.0134
      -807.7934
  24109496.7204   -3121777.69246  -2420082.74543                  24109491.6274
      3770.2834
  24775958.1954    -352692.44546   -271895.68643                  24775952.9384
       317.3104
 06  6 28 13  3  0.0000000  0  8G 7G15G16G22G19G23G11G13
  23548394.2614  -10316953.26147  -7951133.11945                  23548390.4564
     -1745.1374
  22761304.0014  -15185857.53447 -11826378.66445                  22761302.4454
     -1972.2904
  21876376.1694  -16289098.84848 -15468639.08346                  21876371.4374
       662.4224
  24571314.9444   -1307894.48246  -1016265.65944                  24571309.8764
      1224.9414
  21764373.5714  -14190815.40948 -12041227.49847                  21764367.7314
       474.6094
  23658719.4384   -7669338.64547  -5959143.90145                  23658712.2474
      -816.1384
  24087984.9304   -3234821.94746  -2508169.18543                  24087980.0334
      3766.1234
  24774183.9024    -362014.18646   -279159.38743                  24774179.5334
       304.2684
 06  6 28 13  3 30.0000000  0  8G 7G15G16G22G19G23G11G13
  23558347.4194  -10264650.22547  -7910377.52145                  23558343.8934
     -1741.7194
  22772601.6754  -15126492.07348 -11780119.89545                  22772599.0104
     -1985.3664
  21872604.5184  -16308918.99748 -15484083.35146                  21872599.9114
       658.9214
  24564332.6054   -1344587.64646  -1044857.70344                  24564327.0404
      1221.3574
  21761690.4724  -14204916.01548 -12052214.97547                  21761684.5474
       465.4644
  23663400.7624   -7644731.93347  -5939969.80944                  23663395.0964
      -824.2874
  24066496.8234   -3347744.11546  -2596160.45743                  24066491.6984
      3762.0754
  24772484.7944    -370946.41546   -286119.54043                  24772479.5494
       291.3284
 06  6 28 13  4  0.0000000  0  8G 7G15G16G22G19G23G11G13
  23568279.3554  -10212454.15047  -7869705.28244                  23568276.0704
     -1738.0864
  22783973.7724  -15066732.17348 -11733553.73845                  22783968.7564
     -1998.5354
  21868853.0484  -16328633.98348 -15499445.68246                  21868848.3274
       655.4444
  24557370.0344   -1381172.46846  -1073365.36843                  24557364.6914
      1217.7254
  21759058.6094  -14218744.72948 -12062990.58647                  21759052.3534
       456.5384
  23668129.6114   -7619882.65947  -5920606.72544                  23668124.0994
      -832.2614
  24045031.8044   -3460541.80746  -2684054.80243                  24045026.0384
      3757.8424
  24770859.0424    -379490.52947   -292777.31143                  24770853.6404
       278.3794
 06  6 28 13  4 30.0000000  0  8G 7G15G16G22G19G23G11G13
  23578192.3674  -10160359.62547  -7829112.16744                  23578190.0264
     -1734.5754
  22795421.7644  -15006574.15048 -11686677.34745                  22795416.8224
     -2011.7534
  21865122.8644  -16348236.58548 -15514720.43046                  21865117.7444
       651.7094
  24550430.4444   -1417640.18046  -1101781.77443                  24550425.5134
      1213.6824
  21756479.7664  -14232297.47348 -12073551.14847                  21756474.3854
       447.3394
  23672905.0944   -7594787.58447  -5901052.14444                  23672898.5844
      -840.3814
  24023591.5334   -3573206.86546  -2771845.70243                  24023587.1504
      3753.5114
  24769305.5744    -387642.51746   -299129.43743                  24769302.6784
       265.3564
 06  6 28 13  5  0.0000000  0  8G 7G15G16G22G19G23G11G13
  23588086.1434  -10108372.51447  -7788602.73644                  23588082.4924
     -1730.9964
  22806943.1434  -14946024.92248 -11639496.12145                  22806939.8644
     -2024.9124
  21861413.4034  -16367729.62048 -15529909.81146                  21861408.4084
       647.8564
  24543512.7014   -1453993.40046  -1130108.98443                  24543507.3784
      1209.8144
  21753952.4744  -14245580.71748 -12083901.71947                  21753946.5914
       438.2234
  23677726.0714   -7569454.24247  -5881311.84944                  23677719.9204
      -848.4674
  24002177.8054   -3685741.72546  -2859535.15243                  24002173.3944
      3748.8384
  24767828.9104    -395407.98046   -305180.39043                  24767823.7804
       252.3054
 06  6 28 13  5 30.0000000  0  8G 7G15G16G22G19G23G11G13
  23597958.6564  -10056490.37447  -7748175.11844                  23597955.2474
     -1727.7004
  22818540.3724  -14885083.58048 -11592009.37645                  22818536.8614
     -2038.0084
  21857725.6644  -16387108.76148 -15545010.44846                  21857720.4724
       643.9404
  24536619.0674   -1490226.56746  -1158342.54143                  24536612.7324
      1205.5424
  21751475.9774  -14258593.12547 -12094041.25447                  21751470.1624
       429.1854
  23682591.5944   -7543882.55647  -5861385.85744                  23682586.5104
      -856.4504
  23980788.7824   -3798141.46246  -2947119.36843                  23980783.8594
      3744.3854
  24766424.6034    -402785.87846   -310929.45143                  24766419.9364
       239.3704
 06  6 28 13  6  0.0000000  0  8G 7G15G16G22G19G23G11G13
  23607810.6584  -10004718.17147  -7707833.17544                  23607807.8864
     -1724.0194
  22830209.5714  -14823755.89847 -11544221.59345                  22830206.9634
     -2050.7234
  21854058.9694  -16406376.35348 -15560024.15646                  21854054.0704
       640.4054
  24529747.5714   -1526341.36546  -1186483.93743                  24529740.4884
      1201.5624
  21749050.4054  -14271340.04548 -12103973.92547                  21749044.6804
       420.4744
  23687503.8184   -7518078.92147  -5841279.09044                  23687496.2604
      -863.9364
  23959425.0644   -3910407.49546  -3034599.40143                  23959420.8194
      3740.0444
  24765092.6524    -409781.51146   -316380.54043                  24765089.4274
       226.7874
 06  6 28 13  6 30.0000000  0  8G 7G15G16G22G19G23G11G13
  23617640.1894   -9953062.30947  -7667581.89344                  23617637.8014
     -1719.8104
  22841953.2294  -14762050.08947 -11496139.16945                  22841949.0604
     -2063.0324
  21850413.0654  -16425536.59148 -15574954.22046                  21850408.0974
       636.9344
  24522897.2554   -1562341.28146  -1214535.83243                  24522889.6574
      1198.0134
  21746673.6864  -14283829.48948 -12113705.95447                  21746667.8714
       412.1194
  23692455.3074   -7492052.11746  -5820998.45344                  23692448.9444
      -871.1674
  23938086.9934   -4022543.32846  -3121977.88944                  23938081.8704
      3735.7624
  24763833.3814    -416402.61946   -321539.85242                  24763829.8784
       214.5464
 06  6 28 13  7  0.0000000  0  8G 7G15G16G22G19G23G11G13
  23627449.2224   -9901516.40146  -7627416.24544                  23627445.8084
     -1716.5624
  22853767.1934  -14699960.92447 -11447758.00245                  22853764.3384
     -2076.2894
  21846789.0794  -16444580.81048 -15589793.86446                  21846783.8904
       632.6564
  24516070.1954   -1598216.95047  -1242490.86644                  24516063.2004
      1193.4774
  21744346.8234  -14296055.76547 -12123232.91947                  21744341.5454
       402.8714
  23697450.7484   -7465797.58846  -5800540.35244                  23697444.8014
      -879.1364
  23916773.8174   -4134539.66246  -3209247.73943                  23916770.0604
      3730.6354
  24762646.8764    -422643.37746   -326402.74643                  24762641.4414
       201.4794
 06  6 28 13  7 30.0000000  0  8G 7G15G16G22G19G23G11G13
  23637237.6964   -9850076.01947  -7587332.84244                  23637235.3234
     -1712.5594
  22865657.1904  -14637485.26248 -11399075.67545                  22865653.3384
     -2088.7114
  21843188.3204  -16463502.07248 -15604537.70146                  21843183.4384
       628.9064
  24509269.7824   -1633960.36147  -1270342.87644                  24509261.4924
      1189.4484
  21742071.2554  -14308015.26848 -12132552.00647                  21742065.2664
       394.4824
  23702491.9554   -7439313.05646  -5779903.04444                  23702484.9014
      -886.4944
  23895490.3564   -4246389.08646  -3296403.10043                  23895484.9684
      3726.0654
  24761531.1934    -428500.58946   -330966.81843                  24761526.7484
       189.0874
 06  6 28 13  8  0.0000000  0  8G 7G15G16G22G19G23G11G13
  23647004.0194   -9798755.75546  -7547343.07744                  23647001.3074
     -1708.5454
  22877615.9774  -14574639.16347 -11350104.69445                  22877612.2004
     -2101.0354
  21839608.8414  -16482312.64948 -15619195.30446                  21839604.1154
       625.1424
  24502488.4724   -1669583.16747  -1298100.92344                  24502482.5054
      1185.3664
  21739843.5584  -14319723.68347 -12141675.45047                  21739837.4894
       386.0214
  23707571.1334   -7412615.08246  -5759099.40843                  23707564.7914
      -893.5404
  23874231.2254   -4358103.29746  -3383453.17443                  23874225.3714
      3721.3874
  24760486.7164    -433989.58146   -335243.95742                  24760482.0794
       176.8124
 06  6 28 13  8 30.0000000  0  8G 7G15G16G22G19G23G11G13
  23656748.4574   -9747547.18147  -7507440.29144                  23656745.4254
     -1705.0784
  22889646.7164  -14511416.26647 -11300840.08045                  22889642.8944
     -2113.5844
  21836052.8294  -16501001.85448 -15633758.30946                  21836047.5504
       621.0644
  24495734.0324   -1705074.49246  -1325756.50844                  24495728.6574
      1180.8354
  21737664.3894  -14331174.03047 -12150597.78947                  21737658.7224
       377.4714
  23712693.7164   -7385697.65446  -5738124.81143                  23712687.7954
      -900.7474
  23853001.6034   -4469671.28546  -3470389.28143                  23852995.8984
      3716.6464
  24759513.9884    -439102.94946   -339228.42043                  24759509.9814
       164.3704
 06  6 28 13  9  0.0000000  0  8G 7G15G16G22G19G23G11G13
  23666472.1424   -9696452.85847  -7467626.53444                  23666468.0884
     -1701.1874
  22901748.9104  -14447820.14447 -11251284.69945                  22901745.3974
     -2125.9674
  21832518.9684  -16519569.84348 -15648226.86746                  21832514.1194
       616.9784
  24489007.6204   -1740433.00046  -1353308.52343                  24489000.1974
      1176.4264
  21735533.9894  -14342369.32148 -12159321.39447                  21735528.1704
       368.9994
  23717857.2634   -7358564.70346  -5716982.19743                  23717851.0694
      -907.9494
  23831798.1674   -4581091.96746  -3557210.52443                  23831793.1064
      3711.5144
  24758612.1834    -443843.78246   -342922.49843                  24758607.3524
       151.8904
 06  6 28 13  9 30.0000000  0  8G 7G15G16G22G19G23G11G13
  23676172.3624   -9645476.87947  -7427905.02344                  23676168.2124
     -1697.2224
  22913920.4254  -14383856.63747 -11201443.03345                  22913916.6834
     -2138.2134
  21829008.5574  -16538018.59948 -15662602.52846                  21829003.8094
       612.9544
  24482303.3184   -1775660.02146  -1380758.18444                  24482297.0864
      1172.0804
  21733451.1494  -14353314.93548 -12167850.43847                  21733444.9134
       360.7374
  23723060.0504   -7331222.82846  -5695676.81143                  23723054.0374
      -914.8684
  23810623.8664   -4692366.94846  -3643918.27643                  23810618.1494
      3706.7294
  24757780.3134    -448217.68546   -346330.73843                  24757775.4864
       139.7464
 06  6 28 13 10  0.0000000  0  8G 7G15G16G22G19G23G11G13
  23685849.6794   -9594619.43246  -7388275.85344                  23685846.9024
     -1693.1844
  22926161.6194  -14319527.36547 -11151316.33245                  22926158.5894
     -2150.3084
  21825521.0884  -16556345.83948 -15676883.50146                  21825516.1794
       608.9754
  24475624.6164   -1810752.73247  -1408103.14044                  24475619.0214
      1167.4804
  21731415.6844  -14364011.75248 -12176185.60747                  21731409.5124
       352.5054
  23728303.1834   -7303674.36546  -5674210.46943                  23728296.5664
      -921.6414
  23789476.4424   -4803493.56346  -3730510.46843                  23789471.6854
      3701.7874
  24757016.5474    -452225.57546   -349453.73843                  24757012.8644
       127.5204
 06  6 28 13 10 30.0000000  0  8G 7G15G16G22G19G23G11G13
  23695505.4554   -9543878.63646  -7348737.59745                  23695502.3184
     -1689.5854
  22938473.2664  -14254831.75347 -11100904.18445                  22938469.5294
     -2162.7204
  21822057.0104  -16574547.24248 -15691066.40046                  21822052.1494
       604.4044
  24468974.3474   -1845705.97447  -1435339.44944                  24468968.0004
      1162.5394
  21729427.2004  -14374459.45347 -12184326.68047                  21729421.4364
       343.9994
  23733583.0884   -7275919.36646  -5652583.14743                  23733577.9414
      -928.7554
  23768358.2714   -4914466.87246  -3816983.20543                  23768353.7154
      3696.2704
  24756323.5324    -455866.72146   -352290.97743                  24756319.3774
       115.2204
 06  6 28 13 11  0.0000000  0  8G 7G15G16G22G19G23G11G13
  23705138.8694   -9493254.49047  -7309290.21045                  23705136.0574
     -1685.4884
  22950853.5024  -14189771.70547 -11050208.04845                  22950850.7624
     -2174.7324
  21818617.5614  -16592621.10548 -15705149.93646                  21818612.3574
       600.2644
  24462349.1254   -1880517.27646  -1462465.11944                  24462343.0284
      1157.9984
  21727486.3034  -14384659.07647 -12192274.40847                  21727480.6714
       335.8304
  23738904.3964   -7247960.11746  -5630796.77643                  23738898.5184
      -935.4544
  23747271.6084   -5025283.95646  -3903334.06843                  23747266.1804
      3691.2454
  24755700.7104    -459142.48647   -354843.57843                  24755696.3254
       103.0814
 06  6 28 13 11 30.0000000  0  8G 7G15G16G22G19G23G11G13
  23714749.2264   -9442748.76346  -7269935.11544                  23714747.1584
     -1681.6314
  22963303.1114  -14124350.44747 -10999230.47345                  22963299.7924
     -2186.7774
  21815203.2914  -16610566.30848 -15719133.22846                  21815198.4064
       595.9624
  24455752.6564   -1915185.08947  -1489478.99744                  24455746.8744
      1153.1454
  21725592.2274  -14394613.16147 -12200030.85347                  21725585.9884
       327.6614
  23744263.1554   -7219800.41046  -5608854.13043                  23744256.3244
      -942.0564
  23726213.9174   -5135943.53146  -3989562.35243                  23726208.0104
      3685.9724
  24755146.4374    -462055.36146   -357113.28142                  24755141.6644
        91.0304
 06  6 28 13 12  0.0000000  0  8G 7G15G16G22G19G23G11G13
  23724338.2224   -9392358.66246  -7230670.10745                  23724335.9144
     -1677.5834
  22975820.7774  -14058566.94447 -10947970.61345                  22975818.2844
     -2198.7504
  21811813.6204  -16628378.52348 -15733012.86047                  21811809.5954
       591.5194
  24449182.7614   -1949703.80647  -1516376.68444                  24449177.4354
      1148.1794
  21723744.7654  -14404320.47948 -12207594.98546                  21723739.1024
       319.5614
  23749660.1314   -7191439.81246  -5586754.85242                  23749653.1774
      -948.6914
  23705186.1824   -5246440.42246  -4075663.79443                  23705181.4544
      3680.5524
  24754661.6224    -464603.84947   -359099.06443                  24754657.0714
        78.9404
 06  6 28 13 12 30.0000000  0  8G 7G15G16G22G19G23G11G13
  23733905.0534   -9342084.12946  -7191495.16945                  23733902.8764
     -1673.7454
  22988408.0264  -13992422.38647 -10896429.40845                  22988405.0994
     -2210.6844
  21808449.6424  -16646054.66248 -15746786.45347                  21808445.8304
       587.0804
  24442643.4544   -1984070.25147  -1543155.68444                  24442637.8334
      1143.0714
  21721944.5074  -14413781.71748 -12214967.37247                  21721938.3474
       311.4554
  23755094.5074   -7162880.53345  -5564500.79742                  23755087.5654
      -954.9124
  23684192.4444   -5356771.48946  -4161635.98743                  23684185.8774
      3675.0004
  24754245.2044    -466789.23447   -360801.96943                  24754240.3344
        66.9044
 06  6 28 13 13  0.0000000  0  8G 7G15G16G22G19G23G11G13
  23743449.7484   -9291928.87146  -7152413.16945                  23743447.1634
     -1669.8494
  23001063.0264  -13925922.17247 -10844611.06945                  23001058.8874
     -2222.5784
  21805112.1724  -16663596.44048 -15760455.36446                  21805106.6074
       582.4124
  24436133.2434   -2018285.07347  -1569816.60344                  24436126.9094
      1137.9394
  21720190.1134  -14423002.14648 -12222152.10747                  21720184.0414
       303.3204
  23760565.8634   -7134128.54545  -5542096.62542                  23760558.7504
      -961.6024
  23663227.5004   -5466937.48046  -4247479.63343                  23663222.4204
      3669.4094
  24753898.6404    -468616.12847   -362225.51143                  24753893.6804
        54.9614
 06  6 28 13 13 30.0000000  0  8G 7G15G16G22G19G23G11G13
  23752972.3424   -9241890.55147  -7113422.28345                  23752969.0384
     -1665.7524
  23013784.6604  -13859065.88747 -10792515.29945                  23013781.5034
     -2234.1704
  21801800.0444  -16680999.40348 -15774016.14446                  21801793.4144
       578.0084
  24429651.5774   -2052343.25247  -1596355.47844                  24429645.5544
      1132.9104
  21718481.8424  -14431980.34848 -12229148.08947                  21718475.3324
       295.4354
  23766073.9434   -7105183.14745  -5519541.74641                  23766067.9724
      -967.5734
  23642295.4904   -5576933.30346  -4333190.63943                  23642290.5014
      3663.8964
  24753619.0314    -470083.60247   -363368.97043                  24753614.5244
        43.1404
 06  6 28 13 14  0.0000000  0  8G 7G15G16G22G19G23G11G13
  23762470.5924   -9191975.01046  -7074527.05645                  23762467.7414
     -1662.6324
  23026573.7084  -13791861.12147 -10740147.96245                  23026570.1734
     -2246.6464
  21798514.3884  -16698267.10448 -15787471.54046                  21798508.4144
       572.5594
  24423199.3784   -2086247.59047  -1622774.41344                  24423194.1344
      1126.7874
  21716818.1134  -14440723.35148 -12235960.80547                  21716811.6294
       286.8024
  23771616.8704   -7076052.60345
      -974.8444
  23621396.2914   -5686762.18346  -4418771.54543                  23621390.8784
      3657.4464
  24753406.9734    -471198.86946   -364237.98343                  24753402.1274
        30.5324
 06  6 28 13 14 30.0000000  0  8G 7G15G16G22G19G23G11G13
  23771946.9374   -9142172.45746  -7035719.89645                  23771944.7704
     -1657.8374
  23039430.3194  -13724299.73447 -10687502.75145                  23039426.9314
     -2257.6614
  21795256.2274  -16715387.40848 -15800812.03246                  21795251.0044
       568.4864
  24416780.0934   -2119985.13847  -1649063.40744                  24416773.5644
      1122.0904
  21715200.7074  -14449222.65348 -12242583.62347                  21715194.8924
       279.5614
  23777196.9514   -7046729.46046
      -980.3274
  23600530.5774   -5796411.34446  -4504212.48643                  23600525.2454
      3652.3294
  24753263.0664    -471953.02947   -364825.64943                  24753259.5404
        19.4734
 06  6 28 13 15  0.0000000  0  8G 7G15G16G22G19G23G11G13
  23781401.2144   -9092495.33746  -6997010.46245                  23781397.8204
     -1653.8044
  23052351.7524  -13656395.76847 -10634590.57645                  23052348.5954
     -2269.2284
  21792024.4494  -16732370.73648 -15814045.79446                  21792019.3404
       563.8434
  24410389.6494   -2153565.57547  -1675229.96644                  24410384.1654
      1116.6754
  21713626.7424  -14457491.79348 -12249027.10747                  21713621.0124
       271.8074
  23782811.3914   -7017228.40946
      -986.2794
  23579697.8614   -5905890.57546  -4589520.95143                  23579691.8734
      3646.4364
  24753185.3694    -472360.04447   -365142.73643                  24753180.5654
         7.8174
 06  6 28 13 15 30.0000000  0  8G 7G15G16G22G19G23G11G13
  23790830.6974   -9042942.64447  -6958397.98545                  23790827.2844
     -1649.5564
  23065338.7724  -13588150.01647 -10581412.09245                  23065335.6944
     -2280.5324
  21788819.0944  -16749213.98448 -15827170.40846                  21788814.1814
       559.0534
  24404030.6054   -2186984.91947  -1701271.01144                  24404024.2824
      1111.2554
  21712097.2884  -14465531.19948 -12255291.56147                  21712090.7374
       264.1894
  23788458.8334   -6987550.65746
      -992.1634
  23558897.4704   -6015195.88046  -4674693.87743                  23558891.8764
      3640.6154
  24753172.9354    -472419.98647   -365189.42543                  24753169.3004
        -3.7744
 06  6 28 13 16  0.0000000  0  8G 7G15G16G22G19G23G11G13
  23800237.1224   -8993508.30447  -6919877.75045                  23800234.3424
     -1645.7374
  23078391.2044  -13519558.41247 -10527964.11345                  23078388.4154
     -2291.9874
  21785642.4554  -16765908.60548 -15840179.20047                  21785638.3034
       554.0924
  24397703.8354   -2220234.73447  -1727179.97544                  24397697.2014
      1105.6154
  21710611.7864  -14473335.93647 -12261373.17347                  21710605.9554
       256.4064
  23794141.4144   -6957692.72746
      -998.1014
  23538131.6864   -6124318.70746  -4759724.69043                  23538126.2734
      3634.4974
  24753228.8124    -472128.63946   -364962.48843                  24753224.0574
       -15.4154
 06  6 28 13 16 30.0000000  0  8G 7G15G16G22G19G23G11G13
  23809620.1064   -8944203.73247  -6881458.61545                  23809616.9594
     -1641.5924
  23091506.9584  -13450634.07147 -10474256.84745                  23091503.8054
     -2303.2084
  21782491.9964  -16782463.96848 -15853079.47046                  21782487.1854
       549.2094
  24391405.9084   -2253323.19046  -1752963.17344                  24391400.8074
      1099.9514
  21709169.2024  -14480918.44248 -12267281.61447                  21709163.4414
       248.7994
  23799853.8594   -6927667.86646
     -1003.8824
  23517398.9514   -6233267.59846  -4844619.89344                  23517394.6964
      3628.4864
  24753348.7824    -471498.71747   -364471.53943                  24753344.8824
       -26.8994
 06  6 28 13 17  0.0000000  0  8G 7G15G16G22G19G23G11G13
  23818978.8124   -8895024.30347  -6843136.98045                  23818975.5184
     -1637.1394
  23104686.4954  -13381374.06347 -10420288.03545                  23104683.6224
     -2314.2434
  21779369.4604  -16798873.26148 -15865865.93546                  21779364.5854
       544.5514
  24385141.9824   -2286242.75247  -1778614.77744                  24385136.5014
      1094.5654
  21707768.8864  -14488275.55348 -12273014.41247                  21707762.7674
       241.5434
  23805600.8834   -6897473.82846
     -1009.1504
  23496701.3034   -6342035.31346  -4929373.90643                  23496696.1254
      3622.5544
  24753534.5224    -470526.62447   -363714.06043                  24753530.1064
       -38.0274
 06  6 28 13 17 30.0000000  0  8G 7G15G16G22G19G23G11G13
  23828314.8834   -8845964.88047  -6804908.88545                  23828311.4444
     -1633.3744
  23117931.1184  -13311775.12547 -10366055.10945                  23117927.9594
     -2325.6154
  21776276.1374  -16815129.09648 -15878532.82746                  21776271.8144
       539.2874
  24378911.3614   -2318985.60547  -1804128.70244                  24378905.6054
      1088.3744
  21706412.0944  -14495403.32148 -12278568.50447                  21706406.5854
       233.7354
  23811377.2664   -6867108.18346
     -1015.0154
  23476039.8834   -6450613.77747  -5013980.52144                  23476034.4964
      3616.0554
  24753784.9464    -469208.37247   -362686.88543                  24753781.0214
       -49.7414
 06  6 28 13 18  0.0000000  0  8G 7G15G16G22G19G23G11G13
  23837626.9594   -8797027.45247  -6766775.84545                  23837624.3894
     -1629.1654
  23131238.9464  -13241840.84447 -10311560.87345                  23131236.2444
     -2336.5974
  21773211.9284  -16831231.15048 -15891079.87046                  21773207.2054
       534.2334
  24372713.6404   -2351550.90647  -1829504.23144                  24372708.8514
      1082.6224
  21705098.7134  -14502305.23248 -12283946.60647                  21705092.9494
       226.4264
  23817187.8504   -6836575.16845
     -1020.5524
  23455414.7514   -6559002.49347  -5098439.24544                  23455408.8624
      3609.8784
  24754101.2044    -467548.10947   -361393.10743                  24754097.1644
       -60.8794
 06  6 28 13 18 30.0000000  0  8G 7G15G16G22G19G23G11G13
  23846915.2874   -8748214.88247  -6728740.09744                  23846912.7174
     -1625.0984
  23144609.5474  -13171576.18747 -10256809.23545                  23144607.0994
     -2347.6474
  21770176.5394  -16847180.57448 -15903508.00646                  21770171.2574
       529.0384
  24366551.2214   -2383938.54647  -1854741.38144                  24366545.0544
      1076.5534
  21703827.6174  -14508985.50648 -12289152.02447                  21703821.8844
       218.9554
  23823030.0554   -6805879.81645
     -1026.0694
  23434825.2794   -6667201.75047  -5182750.35344                  23434818.7284
      3603.3404
  24754481.4284    -465550.09347   -359836.21543                  24754476.9964
       -72.2664
 06  6 28 13 19  0.0000000  0  8G 7G15G16G22G19G23G11G13
  23856181.5064   -8699521.03946  -6690796.85645                  23856179.1394
     -1621.0254
  23158044.2654  -13100976.92747 -10201796.83945                  23158041.5194
     -2358.6234
  21767172.5584  -16862968.81848 -15915810.53446                  21767167.3434
       523.7744
  24360422.9864   -2416139.77146  -1879833.22144                  24360417.7594
      1070.5274
  21702599.4944  -14515438.97948 -12294180.70147                  21702593.8304
       211.6064
  23828902.9554   -6775018.11645
     -1031.0644
  23414272.8134   -6775202.46547  -5266906.71744                  23414267.9384
      3596.8364
  24754926.2034    -463209.35147   -358012.18843                  24754921.9004
       -83.5064
 06  6 28 13 19 30.0000000  0  8G 7G15G16G22G19G23G11G13
  23865423.6454   -8650953.48147  -6652952.02644                  23865420.8374
     -1617.0024
  23171541.0484  -13030052.48447 -10146531.04645                  23171538.1924
     -2369.6974
  21764197.9524  -16878601.41648 -15927991.79246                  21764192.2514
       518.3304
  24354329.8964   -2448159.27247  -1904783.47744                  24354325.5704
      1064.0924
  21701413.0284  -14521674.85048 -12299039.81547                  21701406.9204
       204.0624
  23834803.8954   -6743999.96545
     -1036.7144
  23393758.1864   -6883009.46347  -5350912.18044                  23393752.1294
      3590.2254
  24755434.8854    -460534.97747   -355928.31043                  24755431.2394
       -94.8294
 06  6 28 13 20  0.0000000  0  8G 7G15G16G22G19G23G11G13
  23874641.7784   -8602512.23347  -6615205.62744                  23874639.1494
     -1612.4464
  23185099.4724  -12958804.95247 -10091013.51045                  23185096.0304
     -2380.1424
  21761252.8424  -16894076.25548 -15940050.12046                  21761247.4624
       513.2624
  24348272.1994   -2479994.50147  -1929590.14044                  24348266.4714
      1058.2374
  21700267.9824  -14527694.69448 -12303730.60947                  21700261.6234
       197.1834
  23840736.3854   -6712828.29844
     -1041.2794
  23373279.4944   -6990620.70547  -5434765.12144                  23373274.2494
      3583.8824
  24756007.6304    -457528.72547   -353585.73343                  24756003.7024
      -105.7284
 06  6 28 13 20 30.0000000  0  8G 7G15G16G22G19G23G11G13
  23883834.0934   -8554202.37046  -6577561.57644                  23883832.1044
     -1608.1644
  23198716.8904  -12887241.02047 -10035249.42144                  23198714.1464
     -2390.7814
  21758337.9854  -16909396.05048 -15951987.63546                  21758332.2824
       508.0184
  24342248.4094   -2511647.63846  -1954254.93044                  24342243.3044
      1052.0514
  21699161.9974  -14533504.45448 -12308257.68847                  21699155.8444
       190.1174
  23846694.9564   -6681510.20244
     -1046.4994
  23352838.7174   -7098038.15046  -5518466.97544                  23352834.3194
      3577.1974
  24756641.1244    -454197.16746   -350989.69643                  24756636.9424
      -116.3674
 06  6 28 13 21  0.0000000  0  8G 7G15G16G22G19G23G11G13
  23893005.2104   -8506013.30246  -6540011.70344                  23893002.1314
     -1604.2384
  23212397.6704  -12815352.36647  -9979232.30944                  23212393.5954
     -2401.5534
  21755454.2834  -16924548.62848 -15963794.85346                  21755448.6704
       502.3784
  24336262.4204   -2543105.67347  -1978767.69444                  24336256.4644
      1045.4304
  21698098.2424  -14539095.41848 -12312614.28147                  21698092.0434
       182.8084
  23852684.8454   -6650037.80545
     -1051.4754
  23332437.6174   -7205248.78747  -5602007.71544                  23332432.7074
      3570.1514
  24757338.8644    -450531.53647   -348133.36744                  24757335.5834
      -127.6614
 06  6 28 13 21 30.0000000  0  8G 7G15G16G22G19G23G11G13
  23902149.3774   -8457957.19746  -6502565.38244                  23902146.5754
     -1599.8244
  23226136.8934  -12743153.04647  -9922973.08944                  23226133.4334
     -2412.0074
  21752600.8454  -16939543.78548 -15975479.40446                  21752595.5634
       497.0124
  24330311.6964   -2574377.68947  -2003135.49744                  24330305.7494
      1039.1654
  21697073.4404  -14544480.83848 -12316810.71647                  21697067.1524
       175.9774
  23858700.6674   -6618425.42745
     -1055.9774
  23312073.4334   -7312262.02547  -5685394.64144                  23312068.4094
      3563.5744
  24758097.0564    -446545.48147   -345027.35543                  24758093.5164
      -138.4284
 06  6 28 13 22  0.0000000  0  8G 7G15G16G22G19G23G11G13
  23911269.5174   -8410032.19146  -6465221.27044                  23911266.6344
     -1595.4594
  23239933.9224  -12670643.18947  -9866471.91444                  23239931.2034
     -2422.3634
  21749777.7414  -16954377.39048 -15987038.05946                  21749773.1234
       491.5144
  24324397.1014   -2605459.05347  -2027354.73644                  24324391.0864
      1032.6564
  21696087.9884  -14549660.03548 -12320846.46847                  21696081.8754
       168.9604
  23864743.7094   -6586673.48145
     -1060.8404
  23291748.2694   -7419073.54147  -5768624.37945                  23291743.1634
      3556.7244
  24758917.1514    -442238.46447   -341671.20843                  24758912.9704
      -149.1214
 06  6 28 13 22 30.0000000  0  8G 7G15G16G22G19G23G11G13
  23920366.1214   -8362223.92046  -6427968.08344                  23920363.7404
     -1591.4894
  23253793.7834  -12597810.72447  -9809719.36944                  23253791.4654
     -2432.9204
  21746988.8764  -16969033.29548 -15998458.25646                  21746984.1764
       485.7474
  24318521.5724   -2636333.42147  -2051412.65144                  24318515.0034
      1025.9284
  21695143.7384  -14554620.50248 -12324711.76447                  21695137.7034
       161.9194
  23870813.7104   -6554770.41245
     -1065.6544
  23271464.3884   -7525666.46447  -5851683.80445                  23271459.5144
      3549.6534
  24759798.3154    -437598.45846   -338055.62143                  24759796.1384
      -160.1174
 06  6 28 13 23  0.0000000  0  8G 7G15G16G22G19G23G11G13
  23929440.1244   -8314544.79046  -6390815.54244                  23929437.0654
     -1587.0414
  23267713.0574  -12524669.87047  -9752726.51644                  23267709.2014
     -2443.0614
  21744232.1634  -16983521.89348 -16009748.07546                  21744227.3554
       480.2254
  24312684.8904   -2667010.05847  -2075316.57344                  24312677.8424
      1019.2484
  21694239.4254  -14559376.04848 -12328417.40747                  21694233.0264
       155.1614
  23876909.9834   -6522731.13545
     -1070.2344
  23251219.7244   -7632050.49347  -5934580.42945                  23251214.7654
      3542.7154
  24760743.5984    -432639.12947   -334191.16044                  24760740.1664
      -170.5624
 06  6 28 13 23 30.0000000  0  7G 7G15G16G22G19G23G11
  23938490.2544   -8266985.82546  -6353756.65244                  23938487.5964
     -1583.1154
  23281691.2104  -12451213.73047  -9695487.95944                  23281688.1274
     -2453.6474
  21741509.1764  -16997831.84448 -16020898.68546                  21741503.6674
       474.0724
  24306886.1554   -2697477.16047  -2099057.15344                  24306880.6704
      1012.0954
  21693374.2524  -14563919.18448 -12331957.51347                  21693368.4394
       147.9834
  23883035.3364   -6490548.97446
     -1074.8004
  23231017.4524   -7738214.27547  -6017305.44945                  23231012.7194
      3535.1324
 06  6 28 13 24  0.0000000  0  7G 7G15G16G22G19G23G11
  23947515.6234   -8219554.89946  -6316797.48544                  23947513.9874
     -1578.9894
  23295727.3774  -12377452.17247  -9638011.44144                  23295724.3604
     -2463.7014
  21738818.7004  -17011969.04848 -16031914.69346                  21738813.7324
       468.3694
  24301127.7844   -2727740.16847  -2122638.68944                  24301122.0094
      1005.3374
  21692548.7064  -14568259.27148 -12335339.40047                  21692542.4944
       141.2894
  23889184.9404   -6458234.21646  -5015428.50842                  23889178.3354
     -1079.2384
  23210856.1684   -7844162.83047  -6099862.74845                  23210851.4564
      3528.1064
 06  6 28 13 24 30.0000000  0  7G 7G15G16G22G19G23G11
  23956517.3384   -8172253.51846  -6279939.28944                  23956514.9294
     -1574.3904
  23309821.1644  -12303388.62147  -9580299.60644                  23309817.9044
     -2473.6624
  21736161.8014  -17025933.13448 -16042795.79746                  21736156.6994
       462.6374
  24295407.9244   -2757798.18747  -2146060.51144                  24295401.0944
       998.5844
  21691760.7164  -14572398.84448 -12338565.03147                  21691754.8264
       134.7274
  23895356.5424   -6425790.88145  -4990148.01242                  23895351.7104
     -1083.4134
  23190735.5764   -7949895.42647  -6182251.77744                  23190730.7904
      3520.8554
 06  6 28 13 25  0.0000000  0  7G 7G15G16G22G19G23G11
  23965493.9074   -8125083.01846  -6243183.07444                  23965491.0694
     -1570.1174
  23323971.0154  -12229026.74247  -9522355.25144                  23323967.7294
     -2483.7304
  21733537.1174  -17039723.43148 -16053541.48946                  21733532.4874
       456.8074
  24289727.4914   -2787650.13247  -2169321.77344                  24289720.4964
       991.6264
  21691010.4984  -14576340.80548 -12341636.66747                  21691004.7914
       128.1744
  23901555.1804   -6393222.42646  -4964770.00042                  23901549.2364
     -1087.6424
  23170657.5294   -8055410.79247  -6264471.57145                  23170651.6724
      3513.5504
 06  6 28 13 25 30.0000000  0  7G 7G15G16G22G19G23G11
  23974445.8154   -8078038.02346  -6206524.68744                  23974443.3364
     -1566.2504
  23338179.9464  -12154363.14647  -9464175.87145                  23338176.5694
     -2493.9214
  21730947.5674  -17053332.65448 -16064146.07646                  21730942.7714
       450.4544
  24284087.1904   -2817287.43147  -2192415.77444                  24284080.8344
       984.1024
  21690298.7734  -14580081.55648 -12344551.53947                  21690292.8034
       121.1964
  23907777.2014   -6360526.13145  -4939292.38741                  23907770.7004
     -1092.2274
  23150620.5004   -8160701.50147  -6346516.25945                  23150616.3634
      3505.7624
 06  6 28 13 26  0.0000000  0  7G 7G15G16G22G19G23G11
  23983373.7604   -8031123.48746  -6169967.92244                  23983371.1644
     -1561.5234
  23352443.7574  -12079404.96747  -9405766.93245                  23352440.7264
     -2503.4184
  21728391.8454  -17066763.49148 -16074611.67146                  21728386.7074
       444.8834
  24278487.6014   -2846713.16847  -2215344.94344                  24278480.8804
       977.5104
  21689624.2974  -14583627.50448 -12347314.60847                  21689618.0414
       115.1954
  23914022.1544   -6327709.95746  -4913721.26642                  23914015.6234
     -1095.5184
  23130626.7504   -8265769.83647  -6428387.66545                  23130621.9714
      3498.7944
 06  6 28 13 26 30.0000000  0  7G 7G15G16G22G19G23G11
  23992277.3994   -7984336.35446  -6133510.44944                  23992273.7344
     -1557.6664
  23366763.8834  -12004151.31647  -9347127.72245                  23366761.0814
     -2513.4134
  21725870.5854  -17080010.84748 -16084934.28546                  21725865.9264
       438.4334
  24272929.9144   -2875921.09047  -2238104.35744                  24272923.5294
       969.8144
  21688986.6414  -14586977.10748 -12349924.68147                  21688980.7794
       108.3354
  23920290.7144   -6294773.14345  -4888056.23042                  23920283.1694
     -1100.0784
  23110677.3484   -8370609.89147  -6510081.20745                  23110671.8144
      3490.7964
 06  6 28 13 27  0.0000000  0  7G 7G15G16G22G19G23G11
  24001156.2954   -7937674.11646  -6097150.26644                  24001153.6854
     -1553.3064
  23381140.0844  -11928602.15747  -9288258.26545                  23381137.6854
     -2523.2374
  21723385.9634  -17093070.46048 -16095110.60946                  21723380.6074
       432.1784
  24267414.3144   -2904906.33147  -2260690.21144                  24267408.0654
       962.4224
  21688386.8624  -14590129.53648 -12352381.11747                  21688380.8754
       101.7584
  23926576.5094                                                   23926574.4704
     -1103.7164
  23090770.0834   -8475217.24147  -6591593.41845                  23090765.2824
      3482.9984
 06  6 28 13 27 30.0000000  0  7G 7G15G16G22G19G23G11
  24010010.3834   -7891147.06246  -6060895.43044                  24010007.2324
     -1548.6724
  23395570.9744  -11852769.46647  -9229167.85445                  23395568.0944
     -2532.4854
  21720934.8054  -17105950.72148 -16105147.17646                  21720929.6844
       426.3284
  24261939.8254   -2933676.75747  -2283108.75244                  24261933.1824
       955.3864
  21687822.1564  -14593096.40848 -12354692.95247                  21687816.4994
        95.7714
  23932892.8804   -6228550.58544
     -1107.0174
  23070907.1814   -8579599.32647  -6672930.09045                  23070902.0864
      3475.6454
 06  6 28 13 28  0.0000000  0  7G 7G15G16G22G19G23G11
  24018838.9284   -7844751.02447  -6024742.69244                  24018835.7904
     -1544.2774
  23410055.6224  -11776651.68347  -9169855.31545                  23410052.7324
     -2541.9734
  21718519.1274  -17118645.44848 -16115039.18446                  21718513.9794
       420.0984
  24256506.9794   -2962225.88647  -2305354.80144                  24256500.1934
       948.0224
  21687293.5304  -14595875.20748 -12356858.25047                  21687287.4884
        89.5564
  23939223.5744
     -1110.8204
  23051087.7974   -8683749.94747  -6754086.41045                  23051082.9344
      3467.8714
 06  6 28 13 28 30.0000000  0  7G 7G15G16G22G19G23G11
  24027642.7194   -7798487.92946  -5988693.46844                  24027639.5894
     -1540.0884
  23424593.1004  -11700252.76446  -9110323.74545                  23424591.0904
     -2551.3044
  21716138.6234  -17131154.67348 -16124786.62946                  21716133.6834
       413.8534
  24251116.3644   -2990552.99047  -2327427.89144                  24251109.2834
       940.5764
  21686799.6354  -14598469.36548 -12358879.66047                  21686794.0314
        83.3844
  23945576.0264   -6161896.01745
     -1114.5024
  23031313.0294   -8787668.54647  -6835061.94145                  23031308.2094
      3460.0104
 06  6 28 13 29  0.0000000  0  7G 7G15G16G22G19G23G11
  24036423.0644   -7752349.05346  -5952741.12144                  24036419.4484
     -1536.0944
  23439186.4694  -11623566.24746  -9050568.04045                  23439184.2584
     -2561.2404
  21713795.6674  -17143467.81448 -16134381.28546                  21713790.3694
       406.8994
  24245770.5634   -3018646.90647  -2349319.24344                  24245764.0394
       932.2514
  21686342.6864  -14600871.75248 -12360751.66347                  21686336.7414
        76.6214
  23951947.1824
     -1118.6134
  23011584.4914   -8891344.13847  -6915848.10945                  23011579.4354
      3451.5284
 06  6 28 13 29 30.0000000  0  7G 7G15G16G22G19G23G11
  24045179.6224   -7706333.24146  -5916884.66744                  24045176.6084
     -1531.8854
  23453834.5784  -11546593.22146  -8990589.08745                  23453831.9474
     -2570.5664
  21711490.2634  -17155581.55948 -16143820.57346                  21711485.0644
       400.3324
  24240468.9424   -3046504.45147  -2371026.43644                  24240462.8114
       924.4734
  21685922.0424  -14603082.58548 -12362474.37547                  21685916.5114
        70.4594
  23958344.7504   -6094804.49645
     -1121.8364
  22991902.0644   -8994772.88647  -6996441.93845                  22991897.5324
      3443.3064
 06  6 28 13 30  0.0000000  0  6G 7G15G16G22G19G11
  24053911.4974   -7660446.40547  -5881128.65444                  24053908.2484
     -1527.2804
  23468534.5414  -11469341.82447  -8930393.19845                  23468532.0974
     -2579.3954
  21709221.9004  -17167500.23148 -16153107.84946                  21709216.9134
       394.1944
  24235211.8714   -3074128.83647  -2392551.93544                  24235206.4974
       917.0414
  21685535.8774  -14605110.11548 -12364054.27347                  21685529.8984
        64.6584
  22972266.7634   -9097958.81747  -7076846.56345                  22972262.4394
      3435.6054
 06  6 28 13 30 30.0000000  0  7G 7G15G16G22G19G23G11
  24062617.3664   -7614696.04046  -5845479.03344                  24062614.5454
     -1522.8564
  23483286.7684  -11391821.70447  -8869987.95745                  23483283.5794
     -2588.6674
  21706990.2964  -17179229.12748 -16162247.26446                  21706985.2104
       387.5834
  24229998.9894   -3101525.26847  -2413899.78444                  24229993.5054
       909.1604
  21685183.5514  -14606962.83248 -12365497.94947                  21685177.1144
        58.7114
  23971184.1814
     -1128.1304
  22952675.6134   -9200906.79447  -7157065.77245                  22952671.3634
      3427.4614
 06  6 28 13 31  0.0000000  0  7G 7G15G16G22G19G23G11
  24071297.8544   -7569078.86647  -5809933.21244                  24071295.0454
     -1518.3114
  23498089.8484  -11314032.18047  -8809372.75145                  23498086.5414
     -2597.3104
  21704795.0974  -17190763.23948 -16171234.87846                  21704790.2904
       381.2894
  24224830.3474   -3128687.76547  -2435065.40244                  24224824.3504
       901.4894
  21684864.1114  -14608639.27148 -12366804.25647                  21684858.3824
        53.0134
  23977634.6424      41959.47645
     -1130.8944
  22933132.0204   -9303611.37447  -7237095.31145                  22933127.5134
      3419.3994
 06  6 28 13 31 30.0000000  0  7G 7G15G16G22G19G23G11
  24079954.8894   -7523584.49747  -5774483.02543                  24079951.1864
     -1514.5364
  23512945.6304  -11235964.83647  -8748541.14045                  23512942.8124
     -2606.9294
  21702639.5994  -17202090.09648 -16180061.01046                  21702634.8994
       374.0234
  24219708.5174   -3155603.84047  -2456038.96044                  24219702.9354
       892.9694
  21684580.8264  -14610130.63048 -12367966.36347                  21684575.1294
        46.5624
  23984101.4484      75943.34546  -4670436.94942                  23984095.2094
     -1134.5904
  22913636.9324   -9406059.66447  -7316925.13745                  22913632.0314
      3410.5474
 06  6 28 13 32  0.0000000  0  7G 7G15G16G22G19G23G11
  24088587.8854   -7478220.62447  -5739134.51544                  24088584.6144
     -1510.0244
  23527851.7184  -11157629.61846  -8687500.70744                  23527849.2544
     -2615.6494
  21700522.9454  -17213215.78248 -16188730.37746                  21700517.4574
       367.4324
  24214632.5214   -3182279.14647  -2476824.92244                  24214627.1784
       885.1424
  21684330.5734  -14611446.12348 -12368991.42147                  21684324.5594
        40.9334
  23990585.3394     110016.60546  -4643886.30142                  23990579.0674
     -1137.2704
  22894189.5214   -9508257.45647  -7396559.78445                  22894184.3294
      3402.3834
 06  6 28 13 32 30.0000000  0  7G 7G15G16G22G19G23G11
  24097194.6124   -7432992.17947  -5703891.58244                  24097191.6714
     -1505.2984
  23542808.1164  -11079033.89146  -8626257.34344                  23542805.8394
     -2624.2824
  21698443.6924  -17224143.22348 -16197245.26246                  21698438.1134
       360.7864
  24209601.6994   -3208715.59047  -2497424.78044                  24209595.7394
       877.1144
  21684112.1924  -14612592.48348 -12369884.69547                  21684106.3174
        35.3664
  23997084.3844     144171.61646  -4617272.00442                  23997078.4664
     -1139.9324
  22874789.3444   -9610207.22047  -7476001.17145                  22874784.4654
      3394.0724
 06  6 28 13 33  0.0000000  0  7G 7G15G16G22G19G23G11
  24105776.6614   -7387892.07547  -5668748.63344                  24105773.4694
     -1500.8554
  23557815.0654  -11000173.03846  -8564807.38844                  23557811.6984
     -2632.6514
  21696403.3454  -17234863.68248 -16205598.86646                  21696398.4714
       354.2724
  24204617.8154   -3234904.12147  -2517831.42744                  24204612.6404
       869.1804
  21683927.3514  -14613564.30248 -12370641.97047                  21683921.6284
        29.9024
  24003600.2334     178412.76146  -4590590.49242                  24003594.0804
     -1142.3634
  22855437.4724   -9711899.65847  -7555242.00545                  22855432.4754
      3385.7574
 06  6 28 13 33 30.0000000  0  7G 7G15G16G22G19G23G11
  24114333.1764   -7342929.06647  -5633712.51144                  24114329.4044
     -1496.6604
  23572869.8034  -10921058.16546  -8503159.44644                  23572867.3544
     -2641.5584
  21694401.1884  -17245383.94548 -16213796.47946                  21694395.9664
       347.1094
  24199680.4794   -3260851.18847  -2538049.90744                  24199674.8424
       860.6594
  21683773.5854  -14614371.91148 -12371271.28847                  21683767.1704
        24.0284
  24010130.8764     212728.43546  -4563851.05941                  24010124.4324
     -1145.0784
  22836134.2894   -9813341.38047  -7634287.48945                  22836128.6664
      3377.0264
 06  6 28 13 34  0.0000000  0  7G 7G15G16G22G19G23G11
  24122865.6434   -7298089.58447  -5598772.69643                  24122861.7324
     -1492.3784
  23587975.6424  -10841678.16646  -8441304.93544                  23587972.1294
     -2650.0344
  21692440.6234  -17255688.90448 -16221826.32646                  21692435.3484
       340.2304
  24194791.5964   -3286540.87847  -2558067.83344                  24194787.1484
       852.2754
  21683654.0194  -14615003.29948 -12371763.28547                  21683647.8734
        18.4134
  24016677.5154     247129.25446  -4537045.13341                  24016670.4154
     -1147.6174
  22816881.3284   -9914516.51447  -7713125.25945                  22816875.7724
      3368.3404
 06  6 28 13 34 30.0000000  0  7G 7G15G16G22G19G23G11
  24131373.5164   -7253377.73247  -5563932.30743                  24131370.8074
     -1488.3594
  23603130.6394  -10762039.37546  -8379248.76344                  23603127.3324
     -2659.0284
  21690520.0894  -17265780.60548 -16229689.97846                  21690514.6424
       332.6564
  24189951.6024   -3311975.04147  -2577886.68544                  24189946.4014
       843.4524
  21683565.7754  -14615464.37148 -12372122.56047                  21683559.7754
        12.4224
  24023237.7374     281609.27445  -4510177.55942                  24023231.9764
     -1150.6694
  22797678.5894  -10015426.98147  -7791756.78045                  22797673.4464
      3359.0434
 06  6 28 13 35  0.0000000  0  7G 7G15G16G22G19G23G11
  24139857.7804   -7208793.64847  -5529191.45144                  24139854.8604
     -1483.9554
  23618333.9474  -10682144.62046  -8316993.15844                  23618331.3924
     -2667.3934
  21688640.2484  -17275657.44847 -16237386.21746                  21688635.1874
       325.6744
  24185160.9484   -3337152.02547  -2597505.10944                  24185154.7834
       834.8294
  21683510.1374  -14615757.35448 -12372350.84847                  21683504.4214
         7.0024
  24029814.3344     316165.22545  -4483250.85941                  24029807.2394
     -1153.0964
  22778526.4264  -10116071.04747  -7870180.73145                  22778521.1884
      3350.3864
 06  6 28 13 35 30.0000000  0  7G 7G15G16G22G19G23G11
  24148318.3084   -7164333.09647  -5494546.89044                  24148315.3044
     -1479.9374
  23633586.8424  -10601991.51746  -8254536.20344                  23633583.7054
     -2676.1384
  21686803.2324  -17285313.33148 -16244910.27846                  21686798.0004
       318.1454
  24180419.9134   -3362064.93347  -2616917.75544                  24180414.2874
       825.9964
  21683487.0694  -14615879.01848 -12372445.64947                  21683481.0224
         1.2744
  24036404.4444     350798.77245  -4456263.66842                  24036397.5904
     -1155.7084
  22759426.4814  -10216441.90447  -7948391.77445                  22759421.2424
      3341.1234
 06  6 28 13 36  0.0000000  0  6G 7G15G16G22G19G11
  24156753.4654   -7120004.52546  -5460005.14344                  24156750.8234
     -1475.2934
  23648886.3184  -10521591.29646  -8191886.74344                  23648883.6944
     -2683.9604
  21685005.9464  -17294755.08548 -16252267.48546                  21685001.2964
       311.3434
  24175728.3824   -3386720.30247  -2636129.78044                  24175722.4054
       817.7394
  21683494.5814  -14615840.08048 -12372415.30447                  21683488.7334
        -3.7794
  22740376.9344  -10316546.27147  -8026395.17245                  22740372.3194
      3332.5344
 06  6 28 13 36 30.0000000  0  6G 7G15G16G22G19G11
  24165164.3814   -7075805.14346  -5425564.10344                  24165161.7754
     -1470.9284
  23664232.4584  -10440943.68646  -8129044.48344                  23664229.6124
     -2692.1054
  21683251.0674  -17303978.18948 -16259454.31946                  21683246.0794
       303.9944
  24171086.7194   -3411112.98047  -2655136.99644                  24171079.8994
       808.9264
  21683532.2994  -14615639.22348 -12372258.80547                  21683526.9564
        -9.1164
  22721379.6534  -10416378.81947  -8104186.78845                  22721374.6084
      3323.4814
 06  6 28 13 37  0.0000000  0  7G 7G15G16G22G19G23G11
  24173549.8024   -7031740.52847  -5391228.00944                  24173547.1524
     -1466.7334
  23679625.0124  -10360056.74247  -8066015.71044                  23679621.9424
     -2700.2544
  21681536.5374  -17312986.55448 -16266473.82346                  21681531.9054
       296.5674
  24166494.1794   -3435246.46547  -2673942.33744                  24166486.8694
       799.9854
  21683600.0814  -14615283.83948 -12371981.87547                  21683594.5084
       -14.4784
  24056252.1204      15487.36445
     -1162.0214
  22702433.4104  -10515943.40447  -8181769.56545                  22702428.3474
      3314.2094
 06  6 28 13 37 30.0000000  0  7G 7G15G16G22G19G23G11
  24181909.9774   -6987809.70747  -5356996.21544                  24181907.3064
     -1462.1924
  23695063.1454  -10278931.66546  -8002801.40944                  23695059.4944
     -2708.1794
  21679864.1504  -17321777.33648 -16273323.78746                  21679859.3914
       289.3314
  24161951.1994   -3459117.46647  -2692543.11144                  24161943.3134
       791.2404
  21683697.0984  -14614774.43848 -12371584.95747                  21683691.5944
       -19.6044
  24062888.3904      50368.68445
     -1163.6674
  22683538.0884  -10615236.60947  -8259140.89245                  22683533.0614
      3305.1514
 06  6 28 13 38  0.0000000  0  7G 7G15G16G22G19G23G11
  24190244.9764   -6944013.55146  -5322869.37744                  24190241.2704
     -1457.6664
  23710545.3704  -10197572.08347  -7939404.36544                  23710542.0134
     -2715.7474
  21678232.4504  -17330349.74148 -16280003.58346                  21678227.6424
       282.1194
  24157458.9234   -3482725.07947  -2710938.61144                  24157451.4614
       782.4764
  21683822.7104  -14614114.26248 -12371070.54747                  21683816.8054
       -24.4384
  24069537.3974      85302.47646  -4374259.34043                  24069530.0914
     -1165.1864
  22664695.1594  -10714257.69847  -8336300.18945                  22664689.8064
      3296.2164
 06  6 28 13 38 30.0000000  0  7G 7G15G16G22G19G23G11
  24198551.5844   -6900354.21546  -5288849.14344                  24198549.0594
     -1453.1844
  23726071.1364  -10115982.67647  -7875828.28244                  23726068.1334
     -2723.7304
  21676642.8904  -17338704.46248 -16286513.72946                  21676637.8354
       274.7024
  24153017.0574   -3506069.65447  -2729129.17744                  24153010.1784
       773.6284
  21683975.9914  -14613306.70648 -12370441.27247                  21683970.6334
       -29.5514
  24076193.3164     120284.57147  -4347000.59843                  24076187.1204
     -1167.0314
  22645903.4964  -10813006.63247  -8413247.40145                  22645898.8904
      3286.8464
 06  6 28 13 39  0.0000000  0  7G 7G15G16G22G19G23G11
  24206835.2624   -6856824.09146  -5254929.55144                  24206832.8824
     -1448.4774
  23741641.9184  -10034158.25646  -7812068.97044                  23741638.5294
     -2731.1674
  21675096.4044  -17346831.99248 -16292846.86746                  21675091.6734
       267.3244
  24148626.4704   -3529140.80547  -2747106.67744                  24148619.8014
       764.6484
  21684159.5704  -14612345.60648 -12369692.36447                  21684153.6404
       -34.3994
  24082860.9554     155319.41847  -4319700.69543                  24082853.9264
     -1168.4864
  22627166.3124  -10911473.64647  -8489974.94645                  22627161.5364
      3277.5734
 06  6 28 13 39 30.0000000  0  7G 7G15G16G22G19G23G11
  24215093.9724   -6813423.19346  -5221110.67744                  24215091.9624
     -1444.6054
  23757256.6824   -9952101.16646  -7748128.39344                  23757253.3004
     -2739.0194
  21673593.2824  -17354730.68148 -16299001.68946                  21673588.3964
       259.3754
  24144288.3704   -3551936.62547  -2764869.66244                  24144281.8194
       755.2254
  21684370.8994  -14611233.78448 -12368826.00947                  21684365.1744
       -39.6004
  24089535.8104     190404.58946  -4292361.61742                  24089529.8304
     -1170.2834
  22608483.1964  -11009656.80647  -8566481.29246                  22608478.1894
      3267.9694
 06  6 28 13 40  0.0000000  0  7G 7G15G16G22G19G23G11
  24223328.3194   -6770150.28746  -5187391.52344                  24223326.2584
     -1439.8194
  23772915.4474   -9869812.46146  -7684007.36744                  23772912.7244
     -2746.2844
  21672134.4924  -17362397.70048 -16304975.98746                  21672129.7034
       252.0754
  24140003.3724   -3574453.96747  -2782415.64344                  24139997.7734
       746.2894
  21684611.0604  -14609971.33948 -12367842.28347                  21684605.0814
       -44.1854
  24096221.8574     225538.61146  -4264984.47342                  24096215.8664
     -1171.4804
  22589853.6354  -11107553.02547  -8642764.05346                  22589848.7714
      3258.7454
 06  6 28 13 40 30.0000000  0  7G 7G15G16G22G19G23G11
  24231538.0914   -6727016.00846  -5153780.38244                  24231534.7954
     -1435.5134
  23788616.1054   -9787305.66546  -7619716.42044                  23788613.1324
     -2753.8534
  21670717.6104  -17369842.12347 -16310776.83146                  21670712.8704
       244.3804
  24135769.7974   -3596701.60747  -2799751.47444                  24135765.0174
       737.0704
  21684877.4324  -14608570.72548 -12366750.89847                  21684871.4674
       -49.0334
  24102913.4514     260707.61446  -4237579.95741                  24102907.8674
     -1172.9154
  22571277.1534  -11205171.01547  -8718830.00145                  22571272.5344
      3249.1894
 06  6 28 13 41  0.0000000  0  7G 7G15G16G22G19G23G11
  24239721.3204   -6684012.85047  -5120271.45144                  24239717.3674
     -1431.0894
  23804359.2784   -9704575.61846  -7555251.47244                  23804356.6914
     -2761.2404
  21669345.1804  -17377054.61647 -16316396.94446                  21669340.5764
       236.7384
  24131589.3084   -3618669.82847  -2816869.60245                  24131584.5234
       727.7594
  21685171.3254  -14607025.96448 -12365547.18847                  21685165.7084
       -53.7354
  24109613.3284     295916.55646  -4210144.30942                  24109607.0794
     -1174.0584
  22552756.0034  -11302500.94847  -8794671.52245                  22552751.0044
      3239.6094
 06  6 28 13 41 30.0000000  0  7G 7G15G16G22G19G23G11
  24247879.4214   -6641139.34946  -5086863.56844                  24247876.1774
     -1426.8654
  23820144.5324   -9621623.80146  -7490613.71244                  23820142.4454
     -2768.5994
  21668017.1454  -17384032.22548 -16321834.03946                  21668012.3474
       228.7654
  24127463.1574   -3640355.40547  -2833767.44744                  24127458.3674
       718.1054
  21685492.8004  -14605337.60548 -12364231.58647                  21685486.6634
       -58.6134
  24116321.4504     331164.40646  -4182678.48042                  24116314.8304
     -1175.4204
  22534290.6654  -11399539.66147  -8870286.10045                  22534285.0884
      3229.6974
 06  6 28 13 42  0.0000000  0  7G 7G15G16G22G19G23G11
  24256013.5264   -6598398.68846  -5053559.17444                  24256009.3574
     -1422.5244
  23835970.9364   -9538455.62346  -7425807.39344                  23835968.4794
     -2775.9424
  21666733.7924  -17390776.57048 -16327089.36346                  21666729.2744
       220.8504
  24123389.7684   -3661759.55847  -2850446.02244                  24123385.7474
       708.7654
  21685840.3754  -14603510.47648 -12362807.85647                  21685834.9334
       -63.1884
  24123035.0884     366445.02246  -4155187.10043                  24123029.0254
     -1176.4994
  22515879.3954  -11496288.28547  -8945674.65446                  22515874.9694
      3220.0344
 06  6 28 13 42 30.0000000  0  7G 7G15G16G22G19G23G11
  24264119.5094   -6555791.06646  -5020358.41143                  24264117.4564
     -1418.1544
  23851837.2994   -9455074.12146  -7360834.83444                  23851835.9964
     -2783.0624
  21665495.5964  -17397286.01547 -16332161.66046                  21665490.0934
       212.8814
  24119370.7364   -3682880.49547  -2866903.92845                  24119367.4854
       699.2044
  21686214.3134  -14601546.75848 -12361277.67947                  21686207.9174
       -67.8664
  24129755.2194     401755.43046  -4127672.50843                  24129748.8624
     -1177.5884
  22497524.2684  -11592745.27947  -9020835.94745                  22497519.2294
      3210.2644
 06  6 28 13 43  0.0000000  0  7G 7G15G16G22G19G23G11
  24272202.5054   -6513314.99946  -4987260.16044                  24272200.7784
     -1413.7064
  23867745.8054   -9371480.20446  -7295696.77844                  23867743.3554
     -2790.0344
  21664301.8144  -17403558.07248 -16337048.97046                  21664296.6524
       205.0594
  24115405.5094   -3703714.71047  -2883138.39244                  24115402.3434
       689.6294
  21686614.0824  -14599446.68348 -12359641.24747                  21686607.6914
       -72.2804
  24136479.6624     437094.23447  -4100135.85143                  24136473.4294
     -1178.4234
  22479225.3624  -11688907.11947  -9095767.24545                  22479220.2654
      3200.4544
 06  6 28 13 43 30.0000000  0  7G 7G15G16G22G19G23G11
  24280261.3454   -6470967.67847  -4954262.28344                  24280259.4184
     -1409.4824
  23883693.2984   -9287673.64846  -7230393.00944                  23883690.2434
     -2797.1924
  21663154.1824  -17409588.12248 -16341747.70046                  21663148.6414
       196.8124
  24111496.8324   -3724257.56447  -2899145.81944                  24111490.5244
       679.7414
  21687039.6304  -14597209.48948 -12357897.96847                  21687033.0454
       -76.9584
  24143209.0374     472461.71047  -4072576.74043                  24143203.1794
     -1179.4534
  22460983.8184  -11784769.22148  -9170464.98345                  22460978.5384
      3190.2884
 06  6 28 13 44  0.0000000  0  7G 7G15G16G22G19G23G11
  24288296.8834   -6428746.50747  -4921362.71244                  24288293.4314
     -1404.9564
  23899681.7034   -9203654.90146  -7164923.93144                  23899678.5034
     -2803.9554
  21662053.8564  -17415371.93648 -16346254.55546                  21662048.4174
       188.8774
  24107643.5664   -3744504.89647  -2914922.92944                  24107633.7614
       670.2054
  21687491.4954  -14594834.48248 -12356047.33747                  21687484.5424
       -81.2214
  24149944.8854     507857.49147  -4044995.79643                  24149938.8974
     -1180.0784
  22442799.5834  -11880327.38548  -9244925.90046                  22442794.0524
      3180.4054
 06  6 28 13 44 30.0000000  0  7G 7G15G16G22G19G23G11
  24296304.0004   -6386662.40246  -4888569.89044                  24296301.4644
     -1400.8254
  23915707.5274   -9119437.24146  -7099299.77944                  23915705.0514
     -2810.9084
  21660998.3844  -17420918.78248 -16350576.75946                  21660992.7884
       180.6454
  24103845.5104   -3764465.42347  -2930476.56844                  24103835.7564
       660.2394
  21687966.9934  -14592334.16548 -12354099.03647                  21687960.7594
       -85.7324
  24156684.1254     543268.01446  -4017403.14643                  24156677.5404
     -1180.9574
  22424671.5124  -11975590.58547  -9319156.95445                  22424666.5724
      3170.1514
 06  6 28 13 45  0.0000000  0  7G 7G15G16G22G19G23G11
  24304287.5454   -6344710.84346  -4855880.38344                  24304284.6874
     -1395.9334
  23931772.3084   -9035018.61346  -7033519.11344                  23931769.0064
     -2816.9974
  21659989.0634  -17426222.93048 -16354709.83746                  21659983.6704
       172.9544
  24100102.9344   -3784132.94847  -2945801.89644                  24100097.7494
       650.8694
  21688467.5144  -14589706.12748 -12352051.19847                  21688460.8764
       -89.4974
  24163424.1264     578694.54646  -3989798.04843                  24163418.9804
     -1181.0504
  22406600.7964  -12070552.47947  -9393153.24045                  22406595.8764
      3160.5814
 06  6 28 13 45 30.0000000  0  7G 7G15G16G22G19G23G11
  24312245.5214   -6302893.09446  -4823295.17244                  24312242.4104
     -1391.8414
  23947873.7934   -8950403.23546  -6967585.09744                  23947871.6404
     -2823.7654
  21659025.7784  -17431284.06848 -16358653.59346                  21659020.1654
       164.5514
  24096416.4034   -3803506.93247  -2960898.51245                  24096413.9354
       640.7714
  21688991.1584  -14586953.17248 -12349906.05447                  21688984.7854
       -93.9404
  24170168.9834     614133.53046  -3962183.25643                  24170162.8994
     -1181.6504
  22388587.1974  -12165212.52747  -9466914.34145                  22388581.9334
      3150.1424
 06  6 28 13 46  0.0000000  0  7G 7G15G16G22G19G23G11
  24320178.6704   -6261207.14647  -4790812.63944                  24320175.0264
     -1387.3834
  23964012.9994   -8865591.57246  -6901498.11344                  23964010.4054
     -2830.5664
  21658109.3534  -17436098.72848 -16362405.27046                  21658104.4674
       156.3234
  24092786.3824   -3822583.51347  -2975763.42145                  24092783.0034
       630.9284
  21689538.4434  -14584075.39748 -12347663.64246                  21689532.4484
       -98.0374
  24176914.3314     649583.92345  -3934559.58242                  24176908.2284
     -1181.7974
  22370632.5084  -12259566.95747  -9540437.28145                  22370627.6964
      3139.9514
 06  6 28 13 46 30.0000000  0  7G 7G15G16G22G19G23G11
  24328085.2214   -6219652.87447  -4758432.71644                  24328082.5084
     -1383.4374
  23980189.1554   -8780586.34046  -6835260.33544                  23980186.4134
     -2837.0514
  21657240.7924  -17440665.46048 -16365963.74846                  21657235.8064
       147.7344
  24089212.8334   -3841360.96647  -2990395.20844                  24089206.4154
       620.5814
  21690109.8574  -14581074.60448 -12345325.36147                  21690103.3524
      -102.4464
  24183662.3474     685042.92346  -3906929.24243                  24183655.9764
     -1182.3054
  22352735.6274  -12353614.03747  -9613720.71946                  22352731.0914
      3129.4194
 06  6 28 13 47  0.0000000  0  7G 7G15G16G22G19G23G11
  24335967.8114   -6178227.72947  -4726153.39643                  24335965.0354
     -1378.6774
  23996401.5514   -8695387.43546  -6768871.59744                  23996399.0934
     -2843.0674
  21656419.4584  -17444979.58648 -16369325.40146                  21656414.2084
       139.5804
  24085696.7094   -3859834.50047  -3004790.19144                  24085692.3014
       610.6844
  21690704.5844  -14577949.81748 -12342890.46146                  21690697.8924
      -106.1964
  24190411.8934     720510.66246  -3879292.03942                  24190405.3094
     -1182.4324
  22334898.9984  -12447349.27447  -9686761.16846                  22334893.3724
      3119.2924
 06  6 28 13 47 30.0000000  0  7G 7G15G16G22G19G23G11
  24343826.4494   -6136932.25747  -4693975.10743                  24343823.2444
     -1374.3704
  24012650.9754   -8609997.97646  -6702334.41644                  24012648.4114
     -2849.3554
  21655646.7914  -17449040.89147 -16372490.04246                  21655641.3764
       131.0554
  24082239.3744   -3878003.45547  -3018947.83944                  24082235.2814
       600.4834
  21691322.2374  -14574703.86748 -12340361.16046                  21691315.0574
      -110.3034
  24197163.2264     755983.50446  -3851650.80142                  24197154.2404
     -1182.4954
  22317121.1284  -12540771.49547  -9759557.70446                  22317115.9334
      3108.8534
 06  6 28 13 48  0.0000000  0  7G 7G15G16G22G19G23G11
  24351660.7774   -6095761.84146  -4661894.30144                  24351657.9744
     -1370.0544
  24028936.5684   -8524415.94946  -6635647.14244                  24028934.3514
     -2855.6204
  21654922.9474  -17452843.27648 -16375452.93246                  21654917.7124
       122.5984
  24078841.2204   -3895861.77047  -3032863.41344                  24078835.9804
       590.2784
  21691963.1814  -14571333.91348 -12337735.22246                  21691955.9624
      -114.1164
  24203912.9764     791463.27545  -3824004.18042                  24203906.1444
     -1182.5244
  22299404.1274  -12633874.39747  -9832105.42046                  22299399.1184
      3098.3354
 06  6 28 13 48 30.0000000  0  7G 7G15G16G22G19G23G11
  24359470.9284   -6054724.68047  -4629917.32543                  24359466.9584
     -1365.7324
  24045257.0924   -8438652.49146  -6568818.49243                  24045254.0314
     -2861.9384
  21654247.7944  -17456393.45148 -16378219.29846                  21654242.5784
       114.0284
  24075501.6614   -3913415.46047  -3046541.63645                  24075496.1414
       579.9764
  21692626.2024  -14567849.80248 -12335020.32446                  21692618.7444
      -118.1204
  24210665.5384     826938.89246  -3796360.85542                  24210657.8654
     -1182.4224
  22281746.7104  -12726664.64247  -9904409.51246                  22281741.5854
      3087.6954
 06  6 28 13 49  0.0000000  0  7G 7G15G16G22G19G23G11
  24367253.9174   -6013818.43147  -4598042.32343                  24367251.5064
     -1361.4364
  24061611.6764   -8352708.27246  -6501848.94543                  24061608.4254
     -2867.7204
  21653620.9034  -17459687.95147 -16380786.43746                  21653615.3254
       105.6354
  24072219.5874   -3930660.61047  -3059979.40945                  24072214.5174
       569.7514
  21693311.4624  -14564251.33448 -12332216.32646                  21693303.8414
      -121.7384
  24217416.0284     862409.85646  -3768721.18442                  24217408.2204
     -1182.1924
  22264149.7834  -12819138.42347  -9976467.02046                  22264144.8874
      3077.2854
 06  6 28 13 49 30.0000000  0  7G 7G15G16G22G19G23G11
  24375012.0594   -5973048.72646  -4566273.73143                  24375009.2604
     -1357.0854
  24077998.6074   -8266591.31246  -6434744.80343                  24077995.9404
     -2873.6824
  21653041.4824  -17462730.55747 -16383157.28446                  21653036.9454
        96.9384
  24068996.0804   -3947601.24247  -3073179.91644                  24068990.5504
       559.2974
  21694016.0854  -14560546.13648 -12329329.14846                  21694008.8644
      -125.5914
  24224162.9644     897867.81446  -3741091.61742                  24224155.7614
     -1182.1044
  22246612.3144  -12911299.48847 -10048280.82846                  22246607.0414
      3066.4414
 06  6 28 13 50  0.0000000  0  7G 7G15G16G22G19G23G11
  24382746.6554   -5932408.53047  -4534606.04444                  24382743.4084
     -1352.4514
  24094419.4774   -8180297.07046  -6367502.57443                  24094417.3134
     -2879.2674
  21652511.9054  -17465512.87747 -16385325.32246                  21652507.5414
        88.3694
  24065831.7374   -3964228.77047  -3086136.41544                  24065826.3544
       549.0194
  21694742.8074  -14556728.86248 -12326354.64446                  21694735.6484
      -129.0284
  24230907.1614     933317.10945  -3713468.74642                  24230900.8494
     -1181.4454
  22229135.7014  -13003139.06947 -10119844.15346                  22229130.5274
      3055.9134
 06  6 28 13 50 30.0000000  0  7G 7G15G16G22G19G23G11
  24390453.0164   -5891900.67046  -4503041.53243                  24390452.4414
     -1348.2084
  24110873.5674   -8093831.57246  -6300126.86344                  24110871.5134
     -2885.1124
  21652031.8314  -17468036.81548 -16387292.01546                  21652026.9284
        79.6394
  24062727.5074   -3980544.65347  -3098850.10444                  24062720.7224
       538.5014
  21695489.5544  -14552804.55148 -12323296.73646                  21695482.6304
      -132.6564
  24237650.4894     968751.75646  -3685857.35242                  24237644.3614
     -1181.0014
  22211719.7444  -13094659.01347 -10191158.42246                  22211714.4834
      3045.1864
 06  6 28 13 51  0.0000000  0  7G 7G15G16G22G19G23G11
  24398139.1884   -5851518.18546  -4471574.64143                  24398136.4104
     -1343.9754
  24127361.2224   -8007190.36346  -6232614.26943                  24127358.8654
     -2890.8504
  21651601.8934  -17470293.91748 -16389050.79146                  21651597.0844
        70.8504
  24059683.2284   -3996540.15847  -3111314.11644                  24059676.8504
       527.8084
  21696257.7034  -14548767.93648 -12320151.32347                  21696250.6744
      -136.3724
  24244391.1334    1004175.99846  -3658253.96943                  24244385.2444
     -1180.6544
  22194366.8444  -13185850.31447 -10262216.58946                  22194361.4564
      3034.2774
 06  6 28 13 51 30.0000000  0  7G 7G15G16G22G19G23G11
  24405799.7234   -5811262.82246  -4440206.86743                  24405797.2284
     -1339.2194
  24143880.4814   -7920378.13846  -6164968.33243                  24143878.9164
     -2896.0554
  21651223.3074  -17472284.41248 -16390601.81546                  21651218.3794
        62.3834
  24056701.1014   -4012215.53247  -3123528.71544                  24056694.3984
       517.6224
  21697046.5364  -14544622.82148 -12316921.35746                  21697039.7984
      -139.4384
  24251130.5674    1039585.30646  -3630662.43442                  24251123.6854
     -1179.5264
  22177076.1934  -13276713.06847 -10333018.72346                  22177071.1574
      3023.7014
 06  6 28 13 52  0.0000000  0  7G 7G15G16G22G19G23G11
  24413435.8654   -5771131.86447  -4408936.00844                  24413434.1534
     -1335.6594
  24160432.9094   -7833394.86246  -6097189.18943                  24160431.0454
     -2902.3104
  21650895.7964  -17474004.67248 -16391942.28246                  21650890.5694
        52.7644
  24053778.6134   -4027566.51447  -3135490.52644                  24053773.0954
       506.2654
  21697855.6334  -14540368.32348 -12313606.16547                  21697849.4784
      -143.6774
  24257864.7434    1074979.32746  -3603082.72243                  24257858.5794
     -1179.6144
  22159848.6664  -13367243.17547 -10403561.66846                  22159844.0034
      3012.0414
 06  6 28 13 52 30.0000000  0  7G 7G15G16G22G19G23G11
  24421049.8124   -5731127.09747  -4377763.53244                  24421046.4464
     -1331.1234
  24177017.2414   -7746244.88446  -6029279.98842                  24177015.0854
     -2907.4564
  21650620.4644  -17475455.01948 -16393072.40446                  21650614.9434
        44.0484
  24050919.1084   -4042593.30847  -3147199.73244                  24050913.8884
       495.7524
  21698685.5024  -14536008.23748 -12310208.70347                  21698679.7984
      -146.8464
  24264596.6884    1110353.67246  -3575518.29543                  24264589.9034
     -1178.4474
  22142684.9434  -13457440.77447 -10473845.50346                  22142679.6704
      3001.2554
 06  6 28 13 53  0.0000000  0  7G 7G15G16G22G19G23G11
  24428636.3494   -5691252.50946  -4346692.46043                  24428634.4354
     -1327.0464
  24193631.7584   -7658934.93746  -5961246.26243                  24193629.9904
     -2913.0374
  21650395.4314  -17476638.04248 -16393994.24046                  21650389.2304
        34.9024
  24048121.5144   -4057298.56747  -3158658.38044                  24048115.1734
       484.7024
  21699534.4364  -14531548.52048 -12306733.59747                  21699528.9874
      -150.3914
  24271323.7914    1145701.11546  -3547974.92043                  24271316.9134
     -1177.9744
  22125583.3984  -13547308.72947 -10543872.47246                  22125578.3574
      2990.0394
 06  6 28 13 53 30.0000000  0  7G 7G15G16G22G19G23G11
  24436200.0134   -5651504.59646  -4315720.11943                  24436198.4574
     -1322.7294
  24210276.9744   -7571464.38346  -5893087.44444                  24210274.9724
     -2918.1694
  21650221.4054  -17477549.22147 -16394704.22746                  21650216.6144
        25.9914
  24045385.0134   -4071677.25047  -3169862.54244                  24045379.4204
       473.8574
  21700402.2124  -14526987.49748 -12303179.55947                  21700396.7824
      -153.5794
  24278044.4844    1181022.67346  -3520451.58743                  24278037.9144
     -1176.8124
  22108546.0394  -13636842.04247 -10613638.69546                  22108541.1164
      2978.9214
 06  6 28 13 54  0.0000000  0  7G 7G15G16G22G19G23G11
  24443740.6864   -5611881.50846  -4284844.98743                  24443738.5444
     -1318.9504
  24226952.6414   -7483834.30246  -5824804.30243                  24226950.6684
     -2923.9214
  21650100.3744  -17478185.31348 -16395199.87046                  21650095.4824
        16.3774
  24042711.5854   -4085726.00147  -3180809.61844                  24042705.8864
       462.5834
  21701289.4564  -14522325.48848 -12299546.83947                  21701284.3864
      -157.2414
  24284761.2384    1216317.14946  -3492949.41343                  24284754.4934
     -1176.2654
  22091572.7734  -13726037.32447 -10683141.52846                  22091567.3194
      2967.3934
 06  6 28 13 54 30.0000000  0  7G 7G15G16G22G19G23G11
  24451255.6474   -5572387.52646  -4254070.50643                  24451253.7374
     -1314.2434
  24243655.9894   -7396052.07046  -5756402.60043                  24243655.1054
     -2928.4574
  21650032.1254  -17478549.73048 -16395483.83746                  21650026.6324
         7.6904
  24040100.2634   -4099448.01347  -3191502.09144                  24040094.4404
       452.0414
  21702194.6964  -14517568.82848 -12295840.34747                  21702189.6904
      -160.0594
  24291469.9614    1251577.30946  -3465473.96844                  24291464.7264
     -1174.5654
  22074662.9684  -13814897.40547 -10752383.14446                  22074658.2644
      2956.4264
 06  6 28 13 55  0.0000000  0  7G 7G15G16G22G19G23G11
  24458746.2134   -5533024.09946  -4223397.67642                  24458744.4844
     -1310.2594
  24260389.9264   -7308121.29346  -5687885.09343                  24260388.1894
     -2933.7604
  21650014.6454  -17478642.42148 -16395556.07946                  21650008.6934
        -1.7294
  24037551.6714   -4112842.87347  -3201939.62144                  24037545.8804
       440.7524
  21703117.5374  -14512720.55448 -12292062.48947                  21703112.5184
      -163.4524
  24298173.8224    1286799.29646  -3438028.26144                  24298166.8004
     -1173.5844
  22057817.5404  -13903421.94647 -10821363.29746                  22057812.4194
      2944.8684
 06  6 28 13 55 30.0000000  0  7G 7G15G16G22G19G23G11
  24466213.9894   -5493786.85346  -4192823.25643                  24466210.9014
     -1305.8694
  24277151.2444   -7220040.79546  -5619250.97743                  24277148.8024
     -2938.5554
  21650047.9114  -17478457.90448 -16395412.27846                  21650043.2114
       -10.7814
  24035065.6904   -4125905.73347  -3212118.49344                  24035060.5954
       429.8144
  21704057.5104  -14507778.45348 -12288211.50447                  21704052.6754
      -166.2844
  24304868.4814    1321984.05946  -3410611.48144                  24304862.6664
     -1172.1004
  22041036.5034  -13991605.82348 -10890078.00746                  22041031.7314
      2933.7944
 06  6 28 13 56  0.0000000  0  7G 7G15G16G22G19G23G11
  24473655.6734   -5454674.34246  -4162345.97342                  24473653.6804
     -1301.7924
  24293939.5554   -7131811.66745  -5550501.04543                  24293938.9024
     -2943.5114
  21650136.3104  -17477993.51348 -16395050.39346                  21650132.1704
       -20.1664
  24032644.2514   -4138632.93747  -3222035.81945                  24032637.8904
       418.5694
  21705015.8504  -14502742.98348 -12284287.76347                  21705010.8864
      -169.3994
  24311556.2374    1357130.76646  -3383224.47843                  24311550.4934
     -1170.9674
  22024320.9434  -14079445.95048 -10958524.85746                  22024316.4614
      2922.2074
 06  6 28 13 56 30.0000000  0  8G 7G15G27G16G22G19G23G11
  24481075.0504   -5415681.42346  -4131961.82042                  24481074.0014
     -1297.6614
  24310758.4004   -7043432.01346  -5481633.79343                  24310756.7294
     -2948.2764
  25059040.3064     -57401.35846    -27632.45354                  25059036.8614
      3359.7414
  21650279.6314  -17477243.10248 -16394465.64846                  21650274.7904
       -29.6784
  24030287.3654   -4151018.35547  -3231686.76844                  24030281.2614
       407.2364
  21705992.5344  -14497611.24548 -12280289.02347                  21705987.6134
      -172.5544
  24318238.3154    1392241.09546  -3355865.84243                  24318232.4624
     -1169.5514
  22007672.2394  -14166935.89048 -11026698.84446                  22007667.5764
      2910.6254
 06  6 28 13 57  0.0000000  0  8G 7G15G27G16G22G19G23G11
  24488470.6074   -5376820.91646  -4101680.94542                  24488468.6064
     -1293.0714
  24327603.5734   -6954917.48746  -5412661.49443                  24327600.3124
     -2952.6864
  25039878.1724    -158098.29646   -106097.58543                  25039874.9304
      3353.3894
  21650474.8314  -17476218.44648 -16393667.20046                  21650469.6354
       -38.6284
  24027993.1834   -4163073.51947  -3241080.41644                  24027986.8264
       396.4114
  21706984.0444  -14492397.92948 -12276226.70247                  21706979.8634
      -175.0784
  24324910.1984    1427299.49046  -3328547.54843                  24324903.1864
     -1167.5984
  21991088.2584  -14254086.98848 -11094608.79946                  21991083.3754
      2899.4044
 06  6 28 13 57 30.0000000  0  8G 7G15G27G16G22G19G23G11
  24495841.3004   -5338089.74046  -4071500.86443                  24495839.0364
     -1288.7844
  24344471.0674   -6866267.35046  -5343583.46543                  24344469.9554
     -2957.1784
  25020754.7034    -258594.81446   -184406.55144                  25020751.1604
      3346.4994
  21650722.9764  -17474915.14048 -16392651.64846                  21650717.4104
       -48.1494
  24025763.0994   -4174793.97947  -3250213.25944                  24025756.6794
       385.0104
  21707992.5854  -14487101.59848 -12272099.70146                  21707986.5624
      -177.9594
  24331570.6814    1462306.24945  -3301269.58642                  24331564.8294
     -1166.0694
  21974569.2104  -14340895.04348 -11162251.44446                  21974563.9404
      2887.8474
 06  6 28 13 58  0.0000000  0  8G 7G15G27G16G22G19G23G11
  24503187.5134   -5299485.92646  -4041420.01143                  24503184.6824
     -1284.7714
  24361367.2574   -6777482.66746  -5274400.68444                  24361365.2824
     -2961.7634
  25001669.0194    -358887.58446   -262556.73244                  25001665.4664
      3339.5854
  21651024.6274  -17473330.06248 -16391416.51946                  21651019.6334
       -57.6224
  24023596.9724   -4186176.80247  -3259082.99644                  24023590.1894
       373.6084
  21709015.9994  -14481722.58048 -12267908.26546                  21709009.1224
      -180.7674
  24338224.1804    1497260.40845  -3274032.64142                  24338215.8434
     -1164.2534
  21958115.9834  -14427356.93647 -11229624.35846                  21958111.2534
      2876.1924
 06  6 28 13 58 30.0000000  0  8G 7G15G27G16G22G19G23G11
  24510511.4094   -5261002.46746  -4011432.92843                  24510507.9864
     -1280.8554
  24378288.3724   -6688559.37546  -5205109.79444                  24378287.0134
     -2966.4794
  24982625.5454    -458967.41546   -340541.00044                  24982621.2934
      3332.3584
  21651381.3514  -17471455.41948 -16389955.75346                  21651375.8604
       -67.4464
  24021495.8674   -4197213.35047  -3267682.92344                  24021490.3204
       362.0074
  21710056.4484  -14476255.73048 -12263648.37246                  21710047.8654
      -183.8044
  24344865.0934    1532166.37346  -3246833.20342                  24344858.2254
     -1162.9204
  21941730.0404  -14513464.30547 -11296721.01846                  21941725.1894
      2864.1704
 06  6 28 13 59  0.0000000  0  7G 7G27G16G22G19G23G11
  24517811.0204   -5222641.13846  -3981540.98443                  24517808.0984
     -1276.4114
  24963621.3364    -558834.35946   -418359.36844                  24963616.9254
      3325.5474
  21651792.9734  -17469291.62948 -16388269.67846                  21651787.4064
       -76.6894
  24019462.0504   -4207904.38647  -3276013.58944                  24019456.5974
       350.7524
  21711112.2404  -14470705.02847 -12259323.13546                  21711102.8484
      -186.1774
  24351497.7814    1567019.10846  -3219675.26242                  24351490.5424
     -1160.7424
  21925412.2274  -14599217.45247 -11363541.65346                  21925406.9354
      2852.7254
